DW8522 Weather Reports


Display with metric or nautical units.
time (UTC)temp
F
wind
direction
speed
MPH
gust
MPH
rain 1hr
in
rain 24hr
in
rain mn
in
humidity
%
barometer
mb
20260831231505 59 212 4.0 17.0 0.00 0.02 0.00 65 1014.1
20260831230005 59 285 5.0 15.0 0.00 0.02 0.00 63 1013.9
20260831224501 59 256 5.0 17.0 0.00 0.02 0.00 63 1013.8
20260831223100 58 229 7.0 18.0 0.00 0.02 0.00 63 1014.0
20260831221557 58 290 4.0 20.0 0.00 0.02 0.00 64 1013.9
20260831220055 58 167 7.0 23.0 0.00 0.02 0.00 63 1014.0
20260831214600 58 215 5.0 15.0 0.00 0.02 0.00 65 1013.9
20260831213054 57 217 4.0 13.0 0.00 0.02 0.00 67 1013.5
20260831211552 57 285 8.0 14.0 0.00 0.02 0.00 66 1013.2
20260831210046 57 273 4.0 11.0 0.00 0.02 0.00 66 1013.0
20260831204542 56 204 5.0 12.0 0.00 0.02 0.00 66 1012.8
20260831203038 56 170 2.0 7.0 0.00 0.02 0.00 69 1012.7
20260831201537 55 176 2.0 6.0 0.00 0.02 0.00 69 1012.6
20260831200037 54 172 4.0 8.0 0.00 0.02 0.00 70 1012.5
20260831194542 54 208 1.0 7.0 0.00 0.02 0.00 73 1012.3
20260831193033 53 165 4.0 8.0 0.00 0.02 0.00 72 1012.1
20260831191535 53 198 2.0 8.0 0.00 0.02 0.00 72 1012.0
20260831190029 53 245 5.0 13.0 0.00 0.02 0.00 72 1011.7
20260831184527 53 187 3.0 10.0 0.00 0.02 0.00 73 1011.4
20260831183025 53 212 1.0 5.0 0.00 0.02 0.00 74 1011.3
20260831181522 54 132 0.0 2.0 0.00 0.02 0.00 74 1010.9
20260831180019 54 338 1.0 8.0 0.00 0.02 0.00 74 1010.6
20260831174517 54 117 1.0 6.0 0.00 0.02 0.00 74 1010.2
20260831173015 54 83 1.0 9.0 0.00 0.02 0.00 73 1009.8
20260831171513 54 201 3.0 7.0 0.00 0.02 0.00 76 1009.7
20260831170012 54 116 1.0 6.0 0.00 0.02 0.00 75 1009.4
20260831164511 54 98 1.0 5.0 0.00 0.02 0.00 75 1009.4
20260831163013 55 150 0.0 10.0 0.00 0.02 0.00 74 1009.4
20260831161524 55 80 3.0 6.0 0.00 0.02 0.00 74 1009.0
20260831160014 55 270 2.0 6.0 0.00 0.02 0.00 74 1009.4
20260831154505 55 146 0.0 10.0 0.00 0.02 0.00 74 1009.2
20260831153004 55 354 4.0 9.0 0.00 0.02 0.00 74 1009.3
20260831151503 55 235 4.0 14.0 0.00 0.02 0.00 76 1009.5
20260831150003 56 150 0.0 10.0 0.00 0.02 0.00 76 1009.0
20260831144607 55 149 5.0 9.0 0.00 0.02 0.00 78 1009.4
20260831143108 55 356 3.0 9.0 0.00 0.02 0.00 78 1009.2
20260831141558 55 120 2.0 4.0 0.00 0.02 0.00 78 1008.9
20260831140056 55 113 1.0 3.0 0.00 0.02 0.00 78 1009.1
20260831134554 55 240 3.0 6.0 0.00 0.02 0.00 80 1008.8
20260831133052 55 75 1.0 6.0 0.00 0.02 0.00 80 1008.6
20260831131555 55 162 2.0 8.0 0.00 0.02 0.00 79 1008.5
20260831124548 55 86 2.0 10.0 0.00 0.02 0.00 77 1008.5
20260831123048 55 48 1.0 5.0 0.00 0.02 0.00 77 1008.7
20260831121546 56 160 2.0 6.0 0.00 0.02 0.00 77 1008.5
20260831120044 56 84 1.0 5.0 0.00 0.02 0.00 77 1008.6
20260831114542 56 139 1.0 4.0 0.00 0.02 0.02 78 1008.6
20260831113042 56 104 2.0 13.0 0.00 0.02 0.02 77 1008.5
20260831111541 56 82 1.0 8.0 0.00 0.02 0.02 76 1008.5
20260831110041 56 190 2.0 7.0 0.00 0.02 0.02 76 1008.4
20260831104541 56 116 2.0 10.0 0.00 0.02 0.02 76 1008.4
20260831103040 56 167 1.0 8.0 0.00 0.02 0.02 76 1008.2
20260831101538 56 245 2.0 9.0 0.00 0.02 0.02 77 1008.1
20260831100037 56 97 0.0 9.0 0.00 0.02 0.02 76 1007.9
20260831094536 56 173 5.0 14.0 0.00 0.02 0.02 76 1007.9
20260831093035 56 335 2.0 8.0 0.00 0.02 0.02 78 1008.0
20260831091533 56 39 2.0 10.0 0.00 0.02 0.02 77 1007.8
20260831090034 56 285 4.0 17.0 0.00 0.02 0.02 77 1007.6
20260831084532 56 93 2.0 10.0 0.00 0.02 0.02 78 1007.1
20260831083038 56 131 2.0 10.0 0.00 0.02 0.02 78 1007.0
20260831081531 56 123 1.0 6.0 0.00 0.02 0.02 79 1007.2
20260831080030 56 299 1.0 6.0 0.00 0.02 0.02 80 1007.0
20260831074530 56 108 1.0 8.0 0.00 0.02 0.02 81 1007.1
20260831073029 57 324 3.0 13.0 0.00 0.02 0.02 80 1006.9
20260831071528 57 288 5.0 13.0 0.00 0.02 0.02 79 1006.6
20260831070028 57 329 5.0 15.0 0.00 0.02 0.02 78 1006.6
20260831064527 57 168 4.0 13.0 0.00 0.02 0.02 77 1006.3
20260831063026 57 331 5.0 11.0 0.00 0.02 0.02 76 1006.5
20260831061526 57 207 2.0 13.0 0.00 0.02 0.02 77 1006.9
20260831060026 58 196 2.0 14.0 0.00 0.02 0.02 78 1007.0
20260831054524 58 276 5.0 19.0 0.00 0.02 0.02 77 1006.4
20260831053024 58 227 6.0 17.0 0.00 0.02 0.02 78 1005.9
20260831051527 58 288 5.0 11.0 0.00 0.02 0.02 79 1005.8
20260831050024 58 257 7.0 17.0 0.00 0.02 0.02 80 1006.2
20260831044521 58 253 8.0 16.0 0.00 0.02 0.02 80 1006.2
20260831043020 58 211 7.0 16.0 0.00 0.02 0.02 83 1006.4
20260831041550 58 288 4.0 15.0 0.00 0.02 0.02 85 1006.5
20260831040020 59 252 7.0 20.0 0.00 0.02 0.02 79 1005.9
20260831034519 60 252 6.0 18.0 0.00 0.02 0.02 74 1005.8
20260831033022 61 295 9.0 18.0 0.00 0.02 0.02 73 1006.0
20260831031518 61 229 6.0 21.0 0.00 0.02 0.02 75 1005.9
20260831030016 61 256 8.0 22.0 0.00 0.02 0.02 76 1005.6
20260831024515 61 219 6.0 20.0 0.00 0.02 0.02 73 1005.6
20260831023014 61 264 11.0 25.0 0.00 0.02 0.02 73 1005.8
20260831021523 62 290 7.0 15.0 0.00 0.02 0.02 73 1005.8
20260831020014 62 192 6.0 22.0 0.02 0.02 0.02 75 1006.0
20260831014519 61 247 9.0 21.0 0.02 0.02 0.02 78 1006.0
20260831013012 59 290 8.0 18.0 0.02 0.02 0.02 82 1006.0
20260831011519 60 263 10.0 19.0 0.02 0.02 0.02 81 1006.2
20260831010009 63 290 11.0 23.0 0.00 0.00 0.00 71 1006.2
20260831004508 62 281 13.0 28.0 0.00 0.00 0.00 72 1006.3
20260831003007 62 256 10.0 24.0 0.00 0.00 0.00 70 1006.5
20260831001507 63 233 9.0 25.0 0.00 0.00 0.00 69 1006.4
20260831000004 61 331 6.0 15.0 0.00 0.00 0.00 75 1006.7
20260830234502 60 288 8.0 18.0 0.00 0.00 0.00 77 1006.8
20260830233006 62 276 9.0 25.0 0.00 0.00 0.00 71 1006.9